Regional Weather Roundup
Issued by NWS Grand Forks, ND

Home | Current Version | Previous Version | Text Only | Print | Product List | Glossary On
Versions: 1 2 3 4 5 6 7 8 9 10 11 12 13 14 15 16 17 18 19 20 21 22 23 24 25 26 27 28 29 30 31 32 33 34 35 36 37 38 39 40 41 42 43 44 45 46 47 48 49 50
000
ASUS43 KFGF 301031
RWRFGF
PRAIRIE TO PINES  WEATHER ROUNDUP
NATIONAL WEATHER SERVICE EASTERN NORTH DAKOTA/GRAND FORKS ND
500 AM CDT FRI SEP 30 2016

 **SATELLITE DATA USED TO AUGMENT SKY COVER AT AUTOMATED STATIONS**
 *****  WEATHER ACROSS EASTERN NORTH DAKOTA  *****

CITY           SKY/WX    TMP DP  RH WIND       PRES   REMARKS
GRAND FORKS    CLEAR     44  41  89 SE5       30.33F
GRAND FRKS AFB CLEAR     43  41  93 S3        30.33F
GRAND FRKS NWS   N/A     45 N/A N/A S13         N/A
DEVILS LAKE    PTCLDY    50  47  89 SE16      30.29S
FARGO          CLEAR     51  47  86 SE10      30.33F
WAHPETON ARPT  SUNNY     45  43  93 SE6       30.35F
$$

 ***** WEATHER ACROSS CENTRAL AND WESTERN NORTH DAKOTA  *****

CITY           SKY/WX    TMP DP  RH WIND       PRES   REMARKS
BISMARCK       CLOUDY    52  46  80 SE9       30.18F
MINOT          CLOUDY    51  47  86 SE12      30.15F
JAMESTOWN      CLEAR     44  42  93 SE6       30.28F
MINOT AFB      CLOUDY    49  46  88 SE12      30.14F
GARRISON         N/A     53  47  79 SE10      30.15F
WILLISTON      CLOUDY    60  44  55 SE5       30.04F
DICKINSON      CLOUDY    55  43  63 SE22G29   30.06F
HETTINGER      CLOUDY    56  42  59 SE10      30.12F
$$

 *****  OTHER AIRPORT OBSERVATIONS IN OUR AREA  *****

CITY           SKY/WX    TMP DP  RH WIND       PRES   REMARKS
WALHALLA       FAIR      43  41  93 SE7       30.32F
GRAFTON AIRPOR FAIR      41  41 100 SE6       30.35S
VALLEY CITY AR FAIR      46  46 100 S10       30.32F
CANDO          FAIR      48  48 100 SE10      30.29S
CAVALIER APRT  FAIR      46  45  93 SE3       30.33S
GWINNER        FAIR      46  45  93 SE7       30.32S
SHEYENNE NWR     N/A     45  44  95 SE7       29.95S
ROLLA          FAIR      46  46 100 SE9       30.26F
 ***** THE ABOVE OBSERVATIONS ARE NON NWS ARE NOT QUALITY
       CONTROLLED AND MAY MIS-REPORT RAIN FOR SNOW...
$$

  *****  WEATHER ACROSS NORTHERN MINNESOTA  *****

CITY           SKY/WX    TMP DP  RH WIND       PRES   REMARKS
FLAG ISLAND    MOCLDY    55  48  76 SE10      30.39S
WARROAD        MOCLDY    48  45  87 SE5       30.40S
ROSEAU         CLEAR     45  39  81 SE3       30.39S
HALLOCK        CLEAR     48  45  87 SE9       30.34F
THF RVR FALLS  CLEAR     44  43  96 SE7       30.38F
BAUDETTE       CLOUDY    51  47  86 SE7       30.41F
WASKISH        CLEAR     46  45  93 E3        30.41S
CROOKSTON      CLEAR     48  46  93 SE7       30.35F
STEPHEN NDAWN    N/A     46  45  93 SE3         N/A
GREENBUSH NDAW   N/A     45  45 100 SE3         N/A
$$
  *****  WEATHER ACROSS CENTRAL AND WEST MINNESOTA  *****

CITY           SKY/WX    TMP DP  RH WIND       PRES   REMARKS
FOSSTON        CLEAR     45  43  93 SE5       30.38S
BEMIDJI          N/A     43  43 100 CALM      30.40R FOG
PARK RAPIDS    FOG       46  44  93 SE7       30.39S VSB 1/4
ELBOW LAKE     FAIR      48  47  99 SE9       30.36F
WADENA         FOG       43  41  93 CALM      30.38S VSB 1/2
DETROIT LAKES  CLEAR     46  46 100 SE7       30.38F
MOORHEAD       CLEAR     48  46  93 SE7       30.35F
FERGUS FALLS   CLEAR     50  48  93 SE7       30.38S
MORRIS MN      CLEAR     43  43 100 E7        30.35F FOG
STAPLES        FOG       45  45 100 E3        30.39S VSB 1/4
$$
  *****  WEATHER ELSEWHERE ACROSS MINNESOTA  *****

CITY           SKY/WX    TMP DP  RH WIND       PRES   REMARKS
DULUTH         CLOUDY    51  51 100 E8        30.43S
INTRNTL FALLS  PTCLDY    44  43  96 SE6       30.43S
ELY            CLOUDY    48  46  93 CALM      30.45S
CLOQUET        CLOUDY    52  50  93 E6        30.43S
WHEATON        CLEAR     41  39  93 SE7       30.37F FOG
BRAINERD       CLOUDY    50  50 100 E3        30.41S FOG
HIBBING        CLOUDY    48  48 100 SE5       30.43S FOG
ALEXANDRIA     FOG       48  48 100 E7        30.38F VSB 1/2
SAINT CLOUD    FOG       49  49 100 E3        30.39S VSB 1/2
MINNEAPOLIS    CLEAR     51  48  89 N5        30.37F
$$

  *****  WEATHER ACROSS SOUTH DAKOTA  *****

CITY           SKY/WX    TMP DP  RH WIND       PRES   REMARKS
SIOUX FALLS    CLEAR     45  43  93 NE5       30.33F
BROOKINGS      CLEAR     43  40  89 CALM      30.33F
WATERTOWN      CLEAR     49  45  86 SE6       30.32F
HURON          CLEAR     48  45  89 SE9       30.29F
SISSETON         N/A     39  38  96 SE6       30.33F
ABERDEEN       CLEAR     45  42  89 SE7       30.29F
MITCHELL       CLEAR     45  43  93 SE6       30.31S
PIERRE         PTCLDY    52  44  74 SE14      30.20F
MOBRIDGE       PTCLDY    57  45  64 S18G28    30.18F
RAPID CITY     PTCLDY    58  42  55 S17       30.12F
$$

  *****  SOME WEATHER IN NEARBY STATES *****

CITY           SKY/WX    TMP DP  RH WIND       PRES   REMARKS
GLASGOW MT     CLOUDY    54  46  74 E13       29.94F
GREAT FALLS MT CLEAR     49  45  86 S3        30.02F
CHEYENNE WY    CLOUDY    55  43  63 N6        30.25F
SCOTTSBLUFF NE CLOUDY    48  40  73 E10       30.20F
OMAHA NE       CLEAR     48  44  86 N7        30.30F
DES MOINES IA  CLEAR     55  50  83 N8        30.27F
DAVENPORT IA   MOCLDY    56  53  90 N8        30.22F
CHICAGO IL     CLOUDY    61  58  90 NE13      30.15S
EAU CLAIRE WI  CLEAR     50  49  96 NE3       30.37F
LA CROSSE WI   CLEAR     54  51  90 N7        30.32S
$$

  *****  SOME NATIONAL WEATHER *****

CITY           SKY/WX    TMP DP  RH WIND       PRES   REMARKS
LA GUARDIA NY  CLOUDY    61  54  77 NE26G40   30.29F
RALEIGH NC     MOCLDY    73  72  96 E6        30.00R
ATLANTA GA     CLEAR     53  48  83 W8        30.02R
NEW ORLEANS LA CLEAR     72  56  57 NE12      30.07R
OKLAHOMA CITY  PTCLDY    53  49  86 NW6       30.25S
ALBUQUERQUE NM MOCLDY    59  56  89 E5        30.34F
SALT LAKE CITY PTCLDY    65  50  58 SE10      30.17F
LOS ANGELES CA CLEAR     68  62  81 CALM      30.02F
BOISE ID       CLEAR     69  41  36 SE12      30.00R
SEATTLE WA     PTCLDY    50  43  77 CALM      30.07S
$$

*** WEATHER ACROSS MANITOBA...SASKATCHEWAN AND ONTARIO ***
                ***ONTARIO***

CITY           SKY/WX    TMP DP  RH WIND       PRES   REMARKS
GERALDTON      FOG       37  37 100 CALM      30.50F VSB 1/2
THUNDER BAY    MOCLDY    41  41 100 W3        30.48S
SIOUX LOOKOUT  CLOUDY    46  46 100 E3        30.47S
TORONTO        MOCLDY    61  55  82 E13G18    30.31F
BIG TROUT LK   MOCLDY    52  48  87 W6        30.42S
PICKLE LAKE    NOT AVBL
DRYDEN         CLOUDY    50  46  87 SE3       30.44F
KENORA         PTCLDY    48  45  87 SE5       30.42F
$$
                *** MANITOBA***

CITY           SKY/WX    TMP DP  RH WIND       PRES   REMARKS
BRANDON        CLEAR     46  45  93 SE8       30.23F
DAUPHIN        CLEAR     46  45  93 SE6       30.21S
ISLAND LAKE    CLOUDY    52  48  87 S6        30.36R
PILOT MOUND      N/A     46  43  87 SE12        N/A
THE PAS        PTCLDY    50  48  93 SE8       30.15F
THOMPSON       MOCLDY    50  48  93 VRB2      30.26S
WINNIPEG       CLEAR     48  45  87 S12       30.34F
LYNN LAKE      CLEAR     34  34 100 VRB2      30.23S FOG
CHURCHILL      CLEAR     43  37  81 W7        30.26R
GILLAM         MOCLDY    50  46  87 S6          N/A
$$
                ***SASKATCHEWAN***

CITY           SKY/WX    TMP DP  RH WIND       PRES   REMARKS
ESTEVAN        PTCLDY    48  45  87 E14       30.08F
KINDERSLEY     PTCLDY    43  43 100 N6        30.01S
LLOYDMINSTER   PTCLDY    46  43  87 N7        30.06R
PRINCE ALBERT  CLOUDY    48  48 100 NE8       30.06F
REGINA         PTCLDY    50  45  81 SE14      30.04F
YORKTON        CLEAR     50  45  81 SE14G20   30.11F
N. BATTLEFORD  CLOUDY    48  48 100 NW7       30.06R
LA RONGE       MOCLDY    48  46  93 NE6       30.16R
SASKATOON      PTCLDY    45  45 100 E8        30.01F
SWIFT CURRENT  CLEAR     50  46  87 S9        29.97S
$$
NOTE: THESE ARE AUTOMATED STATIONS WITH LIMITED QUALITY CONTROL
      "FAIR" INDICATES FEW OR NO CLOUDS BELOW 12,000 FEET WITH NO
      SIGNIFICANT WEATHER AND/OR OBSTRUCTIONS TO VISIBILITY.
      SKY/WX - SKY CONDITION AND SIGNIFICANT WEATHER.
      TMP - AIR TEMPERATURE.    DP   - DEWPOINT TEMPERATURE.
      RH  - RELATIVE HUMIDITY.  PRES - PRESSURE.
      HX  - HEAT INDEX.         WCI  - WIND CHILL INDEX.
$




USA.gov is the U.S. government's official web portal to all federal, state and local government web resources and services.